Tracking 23446 objects as of 19-Jun-2021
HD Live streaming from Space Station
objects crossing your sky now

PEGASUS R/B

Track PEGASUS R/B now!
10-day predictions


NORAD ID: 22491
Int'l Code: 1993-009C
Perigee: 688.0 km
Apogee: 755.3 km
Inclination: 25.0 °
Period: 99.1 minutes
Semi major axis: 7092 km
RCS: 0.1679 m2 (medium)
Launch date: February 9, 1993
Source: United States (US)
Launch site: AIR FORCE EASTERN TEST RANGE (AFETR)

Note: This is a ROCKET BODY
aabbcc
Your satellite tracking list
Your tracking list is empty




NASA's NSSDC Master Catalog

Two Line Element Set (TLE):
1 22491U 93009C   21169.60737502  .00000290  00000-0  21436-4 0  9999
2 22491  24.9791   2.4004 0047489 312.4091  47.2407 14.53417651503564
Source of the keplerian elements: AFSPC